Rifle, CO

6:00 AM MDT on October 24, 2017 (GMT -0600)
Garfield County Regional

Weather History for KRIL - November, 2013

Change the Weather History Date:

Monday, November 4, 2013

  Actual Average Record
Temperature  
Mean Temperature 33 °F 41 °F  
Max Temperature 42 °F 55 °F 79 °F (1934)
Min Temperature 24 °F 27 °F 8 °F (1936)
Degree Days  
Heating Degree Days 32 24  
Month to date heating degree days 101 94  
Since 1 July heating degree days 779 738  
Cooling Degree Days 0 0  
Month to date cooling degree days 0 0  
Year to date cooling degree days 798 541  
Moisture  
Dew Point 24 °F    
Average Humidity 67    
Maximum Humidity 88    
Minimum Humidity 45    
Precipitation  
Precipitation T in 0.05 in 0.37 in (2015)
Month to date precipitation 0.03 0.22  
Year to date precipitation 10.08 12.58  
Sea Level Pressure  
Sea Level Pressure 29.97 in    
Wind  
Wind Speed 4 mph (WNW)    
Max Wind Speed 17 mph    
Max Gust Speed 22 mph    
Visibility 8 miles    
Events Snow    
T = Trace of Precipitation, MM = Missing Value Source: NWS Daily Summary

Daily Weather History Graph

Daily Weather History Graph

Search for Another Location

Airport or City:

Trip Planner

Search our weather history database for the weather conditions in past years. The results will help you decide how hot, cold, wet, or windy it might be!

Date:

Astronomy

Nov. 04, 2013 Rise Set
Actual Time 6:42 AM MST 5:05 PM MST
Civil Twilight 6:14 AM MST 5:33 PM MST
Nautical Twilight 5:42 AM MST 6:05 PM MST
Astronomical Twilight 5:11 AM MST 6:36 PM MST
Moon 7:56 AM MST (11/4) 6:13 PM MST (11/4)
Length of Visible Light 11h 18m
Length of Day
10h 22m
New Moon, 2% of the Moon is Illuminated
Nov 4
New Moon
Nov 9
First Quarter
Nov 17
Full
Nov 25
Last Quarter
Dec 2
New

Hourly Weather History & Observations

Time (MST) Temp. Windchill Dew Point Humidity Pressure Visibility Wind Dir Wind Speed Gust Speed Precip Events Conditions
12:53 AM 28.9 °F 23.9 °F 21.9 °F 75% 29.95 in 10.0 mi WSW 4.6 mph - N/A   Partly Cloudy
1:53 AM 27.0 °F - 21.9 °F 81% 29.96 in 10.0 mi Calm Calm - N/A   Clear
2:53 AM 27.0 °F - 19.9 °F 75% 29.97 in 10.0 mi Calm Calm - N/A   Clear
3:53 AM 24.1 °F 19.7 °F 19.9 °F 84% 29.99 in 10.0 mi South 3.5 mph - N/A   Clear
4:53 AM 24.1 °F 16.0 °F 19.0 °F 81% 30.00 in 10.0 mi SSE 6.9 mph - N/A   Clear
5:53 AM 25.0 °F 20.7 °F 21.0 °F 85% 30.01 in 10.0 mi South 3.5 mph - N/A   Partly Cloudy
6:53 AM 26.1 °F - 19.9 °F 78% 30.03 in 10.0 mi Calm Calm - N/A   Partly Cloudy
7:53 AM 27.0 °F - 21.9 °F 81% 30.06 in 10.0 mi Calm Calm - N/A   Clear
8:53 AM 28.0 °F - 23.0 °F 81% 30.07 in 10.0 mi Calm Calm - N/A   Clear
9:53 AM 32.0 °F - 21.9 °F 66% 30.04 in 10.0 mi Calm Calm - N/A   Clear
10:53 AM 34.0 °F - 23.0 °F 64% 30.02 in 10.0 mi Calm Calm - N/A   Clear
11:53 AM 37.0 °F - 23.0 °F 57% 29.98 in 10.0 mi Calm Calm - N/A   Clear
12:53 PM 41.0 °F - 23.0 °F 49% 29.91 in 10.0 mi Calm Calm - N/A   Partly Cloudy
1:53 PM 41.0 °F - 23.0 °F 49% 29.89 in 10.0 mi Calm Calm - N/A   Overcast
2:53 PM 42.1 °F 40.2 °F 25.0 °F 51% 29.89 in 10.0 mi NNW 3.5 mph - N/A   Overcast
3:53 PM 41.0 °F - 21.0 °F 45% 29.91 in 10.0 mi Calm Calm - N/A   Overcast
4:53 PM 39.9 °F - 23.0 °F 51% 29.91 in 10.0 mi Calm Calm - N/A   Overcast
5:53 PM 39.9 °F 35.8 °F 25.0 °F 55% 29.93 in 10.0 mi NW 5.8 mph - N/A   Overcast
6:53 PM 37.0 °F 30.4 °F 25.0 °F 62% 29.95 in 10.0 mi NW 9.2 mph - 0.00 in   Overcast
7:53 PM 36.0 °F 28.0 °F 25.0 °F 64% 29.96 in 10.0 mi NW 11.5 mph - N/A   Mostly Cloudy
8:53 PM 34.0 °F 25.5 °F 24.1 °F 67% 29.99 in 10.0 mi NW 11.5 mph 18.4 mph N/A   Overcast
9:25 PM 32.0 °F 21.2 °F 26.6 °F 80% 29.95 in 2.0 mi NW 16.1 mph - 0.00 in Snow Light Snow
9:32 PM 30.2 °F 20.8 °F 26.6 °F 86% 29.95 in 1.8 mi NW 11.5 mph - 0.00 in Snow Light Snow
9:51 PM 30.2 °F 19.3 °F 26.6 °F 86% 29.96 in 2.5 mi NW 15.0 mph - 0.00 in Snow Light Snow
9:53 PM 30.9 °F 21.2 °F 27.0 °F 85% 30.00 in 2.5 mi NW 12.7 mph - 0.00 in Snow Light Snow
10:08 PM 30.2 °F 19.8 °F 26.6 °F 86% 29.96 in 1.8 mi NW 13.8 mph - 0.00 in Snow Light Snow
10:18 PM 30.2 °F 22.6 °F 26.6 °F 86% 29.97 in 2.5 mi WNW 8.1 mph - 0.00 in Snow Light Snow
10:22 PM 30.2 °F 21.3 °F 26.6 °F 86% 29.97 in 3.0 mi WNW 10.4 mph - 0.00 in Snow Light Snow
10:30 PM 30.2 °F 21.3 °F 26.6 °F 86% 29.97 in 5.0 mi WNW 10.4 mph - 0.00 in Snow Light Snow
10:50 PM 32.0 °F 23.6 °F 26.6 °F 80% 29.97 in 6.0 mi WNW 10.4 mph - 0.00 in Snow Light Snow
10:53 PM 32.0 °F 24.2 °F 27.0 °F 82% 30.01 in 6.0 mi West 9.2 mph - 0.00 in Snow Light Snow
11:53 PM 30.9 °F 22.8 °F 28.9 °F 92% 30.01 in 5.0 mi West 9.2 mph - 0.00 in Snow Light Snow